Regional Weather Roundup
Issued by NWS

Home | Current Version | Previous Version | Text Only | Print | Product List | Glossary Off
Versions: 1 2 3 4 5 6 7 8 9 10 11 12 13 14 15 16 17 18 19 20 21 22 23 24 25 26 27 28 29 30 31 32 33 34 35 36 37 38 39 40 41 42 43 44 45 46 47 48 49 50

000
ASUS45 KCYS 192110
RWRWY

WYOMING REGIONAL WEATHER ROUNDUP
NATIONAL WEATHER SERVICE CHEYENNE WY
300 PM MDT FRI SEP 19 2014

NOTE:  "FAIR" INDICATES FEW OR NO CLOUDS BELOW 12,000 FEET
WITH NO SIGNIFICANT WEATHER AND/OR OBSTRUCTIONS TO VISIBILITY.

WYZ001-192200-
YELLOWSTONE NATIONAL PARK

CITY           SKY/WX    TMP DP  RH WIND       PRES   REMARKS
LK YELLOWSTONE   N/A     61  40  45 CALM      30.22S
W YELLOWSTONE  NOT AVBL

$$
WYZ002>013-054>058-071-098>099-192200-
NORTHERN WYOMING

CITY           SKY/WX    TMP DP  RH WIND       PRES   REMARKS
JACKSON        SUNNY     72  39  30 SW9       30.14F
CODY             N/A    N/A N/A N/A MISG        N/A
GREYBULL       SUNNY     81  48  31 S9        29.90F
WORLAND        SUNNY     82  45  27 N7        29.92F
SHERIDAN       MOSUNNY   78  51  38 NW14      29.92S
BUFFALO        SUNNY     75  48  38 NW10      29.98S
GILLETTE       MOSUNNY   77  47  34 N12       29.92F
HULETT         FAIR      77  46  33 MISG      29.92
NEWCASTLE      FAIR      81  41  24 NW15G21   29.91

$$
WYZ014>020-022>026-101>103-192200-
CENTRAL WYOMING

CITY           SKY/WX    TMP DP  RH WIND       PRES   REMARKS
BIG PINEY      SUNNY     73  31  21 NW12      30.18S
PINEDALE       CLEAR     70  32  24 W16G23    30.19S
DUBOIS         FAIR      68  32  26 W22G31    30.15S
LANDER         SUNNY     81  36  19 N8        29.99F
RIVERTON       SUNNY     81  35  19 NW10G20   30.00F
CASPER         SUNNY     83  31  15 W16G24    29.97F
DOUGLAS        MOSUNNY   84  40  21 W14G28    29.95F

$$
WYZ021-027>030-104>119-192200-
SOUTHERN WYOMING

CITY           SKY/WX    TMP DP  RH WIND       PRES   REMARKS
EVANSTON       SUNNY     73  41  31 W9        30.20F
KEMMERER       CLEAR     72  34  25 W15G23    30.22S
FORT BRIDGER   FAIR      76  36  23 W13       30.22S
ROCK SPRINGS   SUNNY     76  39  26 W18G24    30.15F
DIXON          FAIR      79  44  29 W7        30.15S
RAWLINS        PTSUNNY   79  41  25 SW17G26   30.12F
SARATOGA       FAIR      77  41  27 W17       30.14F
LARAMIE        PTSUNNY   75  41  29 N10       30.11F
CHEYENNE       MOSUNNY   85  40  20 NW24G30   30.01F
TORRINGTON     SUNNY     88  46  23 NW14      29.88F
PINE BLUFFS    MOCLDY    86  39  19 NW13G18   29.95F

$$


USA.gov is the U.S. government's official web portal to all federal, state and local government web resources and services.